NOAA 16 DEB, 42363

Orbit data source: Space-Track

NOAA 16 DEB, 42363 is space debris in SSO originally from a launch on Thu, 21 Sep 2000 UTC launched from the Air Force Western Test Range (AFWTR). Debris objects in space refer to the collection of defunct objects orbiting the Earth. Examples of debris include non-operational satellites, rocket bodies, and fragments generated from explosions, collisions, or faulty payload assembly.

Loading next visibility...
Identifier
42363, 2000-055RF
Orbit
SSO
Country
Flag of USUS
Related business
Manufacturer
Unknown
Mission
Spacecraft
Bus & Motor
Unknown
Mass
Unknown
Launch date (UTC)
2000-09-21 (26 years ago)
Launch vehicle
Unknown
Launch site
Air Force Western Test Range (AFWTR)
Object type
Payload
Rocket body
Debris
Shape & HBR
Unknown shape, 0.1 m
Radar Cross Section
Small (<0.1 m²)

Expand to show TLE details & history
Last TLE update: 3 days ago

TLE from 3 days ago
0 NOAA 16 DEB
1 42363U 00055RF  26117.73714955  .00003358  00000-0  17510-2 0  9991
2 42363  98.7966 120.4350 0062559 170.6624 189.5728 14.14175554521299
Epoch: 2026-04-27T17:41Z
TLE epoch observation values (Epoch: 2026-04-27T17:41:29.721Z)
Latitude
0.00002°
Longitude
-0.66136°
Altitude
892.597 km
Speed
7.383 km/s
True Right ascension
08h 01m 44s
True Declination
0° 00' 00"
Sunlit
Object was in daylight at epoch
Visualization orbit readout
Latitude
Unknown
Longitude
Unknown
Altitude
Unknown
Speed
Unknown
Apparent Right ascension
Unknown
Apparent Declination
Unknown
Sunlit
N/A
Visualization observer readout
Local Sidereal Time
17:46:23
Azimuth
Unknown
Elevation
Unknown
Doppler factor
Unknown
Orbital elements
Apogee altitude
887.459 km
Perigee altitude
797.118 km
Semi-major axis
7,220.426 km
Eccentricity
0.00626
Inclination
98.7966°
RAAN
120.435°
Arg. of periapsis
170.6624°
True anomaly
189.4545°
Mean anomaly
189.5728°
Eccentric anomaly
189.51356°
Mean motion
3.53752 °/min
Orbital period
101.77 mins
BSTAR
0.001751
Loading maneuver chart data...
Computing Atmospheric mass density...
Loading historical data...
Loading historical data...
Loading historical data...
Loading historical data...
Loading historical data...
Loading historical data...
Loading historical data...

Documentation

Showing up to 5 results
|